Location: Miramichi City (Newcastle)
(46.9830°N, 65.5670°W)
Time: 09:15:41
(UTC-03:00)

Iridium 12 - Visible Passes

Search period start: 27 May 2016 00:00
Search period end: 06 June 2016 00:00
Orbit: 776 x 779 km, 86.4° (Epoch: 26 May)

Date Brightness Start Highest point End Pass type
(mag) Time Alt. Az. Time Alt. Az. Time Alt. Az.
01 Jun 8.6 04:41:52 10° NE 04:44:33 14° ENE 04:47:14 10° E visible
04 Jun 8.3 04:41:11 10° NNE 04:44:55 19° ENE 04:48:36 10° ESE visible
05 Jun 8.7 04:09:25 10° NE 04:10:55 11° ENE 04:12:26 10° E visible
